User: anonymous   Login
Location: Unspecified
(0.0000°N, 0.0000°E)
Time: 15:54:54
(UTC+00:00)
Language:

RISAT 1 - Orbit

View from above orbital plane
View from above orbital plane
View from above satellite
View from above satellite

Ground track
Ground track

The orbit data is extracted from the following two-line orbital elements,

1 38248U 12017A   15210.10290006  .00000867  00000-0  58923-4 0  9995
2 38248 097.5609 216.4190 0003015 231.9689 199.1282 15.08943721179327
Epoch (UTC): 29 July 2015 02:28:10
Eccentricity: 0.0003015
inclination: 97.5609°
perigee height: 537 km
apogee height: 541 km
right ascension of ascending node: 216.4190°
argument of perigee: 231.9689°
revolutions per day: 15.08943721
mean anomaly at epoch: 199.1282°
orbit number at epoch: 17932

The dashed part of the orbit path shows where the satellite is in the earth's shadow,  

DLR